This is the latest recevied weather packets stored in our database for station/object NK7E. If no packets are shown the sender has not sent any weather packets the latest 1 day(s).
| Time | Temp. | Humidity | Pressure | Rain* | Wind** | Luminosity | Snow |
|---|---|---|---|---|---|---|---|
| 1778103616 | 25.56° C | 24% | 1014.1 hPa | 0 mm | - | 839 W/m² | - |
| 1778102416 | 25.56° C | 25% | 1014.3 hPa | 0 mm | - | 881 W/m² | - |
| 1778101816 | 25.56° C | 24% | 1014.3 hPa | 0 mm | - | 902 W/m² | - |
| 1778101216 | 25° C | 24% | 1014.6 hPa | 0 mm | - | 919 W/m² | - |
| 1778100616 | 24.44° C | 26% | 1014.6 hPa | 0 mm | - | 931 W/m² | - |
| 1778100016 | 25° C | 25% | 1014.8 hPa | 0 mm | - | 945 W/m² | - |
| 1778099416 | 24.44° C | 27% | 1014.8 hPa | 0 mm | - | 956 W/m² | - |
| 1778098816 | 24.44° C | 26% | 1014.9 hPa | 0 mm | - | 965 W/m² | - |
| 1778098216 | 24.44° C | 27% | 1015 hPa | 0 mm | - | 973 W/m² | - |
| 1778097616 | 24.44° C | 27% | 1015.1 hPa | 0 mm | - | 981 W/m² | - |
| 1778097016 | 23.89° C | 27% | 1015.3 hPa | 0 mm | - | 986 W/m² | - |
| 1778096416 | 23.89° C | 28% | 1015.3 hPa | 0 mm | - | 987 W/m² | - |
| 1778095816 | 23.89° C | 29% | 1015.6 hPa | 0 mm | - | 987 W/m² | - |
| 1778095216 | 23.33° C | 30% | 1015.7 hPa | 0 mm | - | 990 W/m² | - |
| 1778094616 | 23.33° C | 30% | 1015.7 hPa | 0 mm | - | 986 W/m² | - |
| 1778094016 | 22.78° C | 31% | 1015.7 hPa | 0 mm | - | 982 W/m² | - |
| 1778093416 | 23.33° C | 30% | 1015.6 hPa | 0 mm | - | 980 W/m² | - |
| 1778092816 | 23.33° C | 31% | 1015.7 hPa | 0 mm | - | 973 W/m² | - |
| 1778092216 | 22.78° C | 31% | 1016 hPa | 0 mm | - | 962 W/m² | - |
| 1778091616 | 22.78° C | 33% | 1016.1 hPa | 0 mm | - | 954 W/m² | - |
| 1778091016 | 21.67° C | 32% | 1016.2 hPa | 0 mm | - | 945 W/m² | - |
| 1778090416 | 21.67° C | 34% | 1016.4 hPa | 0 mm | - | 930 W/m² | - |
| 1778089816 | 21.11° C | 34% | 1016.4 hPa | 0 mm | - | 915 W/m² | - |
| 1778088616 | 21.11° C | 37% | 1016.3 hPa | 0 mm | - | 879 W/m² | - |
| 1778088016 | 20.56° C | 36% | 1016.4 hPa | 0 mm | - | 862 W/m² | - |
* Rain latest hour (hover to see other rain measurements)
** Current wind speed in m/s (hover to see current wind gust speed)